Biggs, California, United States (95917)
Lat: 39.41N, Lon: 121.71W
Wx Zone: CAZ016
Local Info
Past Weather Observations for Monday, October 27, 2014

NOTE: This archive is for the closest National Weather Service station to Biggs. Information may differ from the station used for current weather conditions.

Click here for Long-term Archive

Time Weather Temperature Dewpoint Humidity Pressure Winds Precip Visibility
23:53
Clear
52°F / 11°C 45°F / 7°C 77% 30.06 in
(1018 mb)
NW 3.5 mph
(NW 6 kph)
- 10SM
22:53
Clear
54°F / 12°C 45°F / 7°C 72% 30.06 in
(1018 mb)
ENE 3.5 mph
(ENE 6 kph)
- 10SM
21:53
Clear
54°F / 12°C 45°F / 7°C 72% 30.06 in
(1018 mb)
ENE 3.5 mph
(ENE 6 kph)
- 10SM
20:53
Clear
54°F / 12°C 45°F / 7°C 72% 30.06 in
(1018 mb)
NNE 3.5 mph
(NNE 6 kph)
- 10SM
19:53
Clear
54°F / 12°C 45°F / 7°C 72% 30.04 in
(1017 mb)
NE 3.5 mph
(NE 6 kph)
- 10SM
18:53
Clear
57°F / 14°C 43°F / 6°C 59% 30.04 in
(1017 mb)
ENE 3.5 mph
(ENE 6 kph)
- 10SM
17:53
Clear
63°F / 17°C 39°F / 4°C 42% 30.04 in
(1017 mb)
Calm - 10SM
16:53
Clear
66°F / 19°C 37°F / 3°C 35% 30.01 in
(1016 mb)
Calm - 10SM
15:53
Clear
68°F / 20°C 37°F / 3°C 33% 30.01 in
(1016 mb)
WNW 3.5 mph
(WNW 6 kph)
- 10SM
14:53
Clear
70°F / 21°C 36°F / 2°C 29% 30.01 in
(1016 mb)
Calm - 10SM
13:53
Clear
68°F / 20°C 37°F / 3°C 33% 30.01 in
(1016 mb)
Calm - 10SM
12:53
Clear
66°F / 19°C 37°F / 3°C 35% 30.04 in
(1017 mb)
Calm - 10SM
11:53
Clear
N/A N/A N/A 30.06 in
(1018 mb)
Calm -
10:53
Clear
N/A N/A N/A 30.06 in
(1018 mb)
Variable 4.6 mph
(Variable 7 kph)
-
09:53
Partly Cloudy
61°F / 16°C 45°F / 7°C 55% 30.06 in
(1018 mb)
SE 5.8 mph
(SE 9 kph)
-
08:53
Clear
59°F / 15°C 43°F / 6°C 55% 30.06 in
(1018 mb)
SW 4.6 mph
(SW 7 kph)
- 10SM
07:53
Clear
50°F / 10°C 43°F / 6°C 76% 30.06 in
(1018 mb)
Calm - 10SM
06:53
Clear
45°F / 7°C 41°F / 5°C 87% 30.04 in
(1017 mb)
E 4.6 mph
(E 7 kph)
- 10SM
05:53
Clear
45°F / 7°C 39°F / 4°C 81% 30.04 in
(1017 mb)
SE 3.5 mph
(SE 6 kph)
- 10SM
04:53
Clear
46°F / 8°C 43°F / 6°C 87% 30.04 in
(1017 mb)
Calm - 10SM
03:53
Clear
46°F / 8°C 43°F / 6°C 87% 30.04 in
(1017 mb)
E 3.5 mph
(E 6 kph)
- 10SM
02:53
Clear
46°F / 8°C 41°F / 5°C 82% 30.04 in
(1017 mb)
Calm - 10SM
01:53
Clear
52°F / 11°C 43°F / 6°C 72% 30.04 in
(1017 mb)
N 4.6 mph
(N 7 kph)
- 10SM
00:53
Clear
52°F / 11°C 43°F / 6°C 72% 30.04 in
(1017 mb)
NNW 4.6 mph
(NNW 7 kph)
- 10SM
Time Weather Temperature Dewpoint Humidity Pressure Winds Precip Visibility


Weather for websites

WeatherForYou.com, LLC is not responsible for any damages or problems caused by this service. Current weather conditions are obtained from the closest station including government and personal stations which may have varying degrees of accuracy. Weather forecasts are derived from the NOAA NDFD. Like all things, this site belongs to Jesus Christ... He just trusts me to maintain it. If you have any questions or comments email webmaster@weatherforyou.com

Copyright © 2014, WeatherForYou.com LLC. All rights reserved.